www.pogodaiklimat.ru

Погода и климат >> Архив погоды >> Россия >> Белгородская область >> Валуйки


АРХИВ ПОГОДЫ в Валуйках

Время (UTC), дата Ветер
(напр.,м/с)
 
Видим.   Явления Облачность Т
(С)
Тd
(С)
f
(%)
Тe
(С)
Тes
(С)
Комфортность P
(гПа)
Po
(гПа)
Тmin
(С)
Tmax
(С)
R
(мм)
R24
(мм)
S
(см)
12 12.08 С 2 20 км 6/3 600 м
[Cb cap Ac trans Ci fib]
+25.7 +11.2 40 +27 +32 жарко 1017.6 1004.7
15 12.08 С 2 20 км 3/0
[Ac trans]
+26.3 +10.7 38 +27 +29 жарко 1017.5 1004.6
18 12.08 штиль 0 10 км ясно +19.9 +12.6 63 +21 +21 комфорт 1018.7 1005.5 +27.0
21 12.08 СВ 1 10 км ясно +14.7 +11.8 83 +15 +15 1019.3 1005.9
00 13.08 штиль 0 10 км ясно +12.3 +11.0 92 +12 +12 1020.0 1006.4
03 13.08 штиль 0 10 км ясно +10.9 +9.9 94 +10 +11 1020.0 1006.4 +10.7
06 13.08 штиль 0 20 км ясно +20.6 +14.4 68 +23 +33 комфорт 1018.8 1005.7 +10.7
09 13.08 ЮЗ 3 20 км ясно +28.0 +14.0 42 +30 +42 жарко 1017.8 1005.0
12 13.08 Ю 2 20 км 3/3 1000 м
[Cu hum Ci fib]
+30.0 +14.1 38 +32 +39 жарко 1016.5 1003.8
15 13.08 ЮЗ 2 20 км 3/0
[Ci fib]
+30.2 +14.9 39 +32 +34 жарко 1014.9 1002.3
18 13.08 В 1 10 км ясно +24.0 +15.8 60 +27 +27 жарко 1015.6 1002.6 +30.5
21 13.08 В 1 10 км ясно +21.6 +14.0 62 +24 +24 комфорт 1015.7 1002.6
00 14.08 В 1 10 км ясно +18.7 +13.8 73 +21 +21 комфорт 1015.6 1002.4
03 14.08 ЮВ 2 20 км ясно +18.1 +13.5 74 +19 +19 1015.9 1002.6 +17.6
06 14.08 Ю 1 20 км ясно +24.1 +15.1 57 +27 +35 жарко 1015.1 1002.1 +17.6
09 14.08 ЮЗ 3 20 км ясно +30.6 +15.0 39 +33 +45 душно 1014.1 1001.5
12 14.08 Ю 3 20 км ясно +33.0 +16.6 38 +36 +44 очень
душно
1012.8 1000.3
15 14.08 Ю 2 20 км ясно +31.3 +17.2 43 +35 +36 очень
душно
1012.1 999.5
18 14.08 В 1 10 км ясно +26.0 +16.6 56 +30 +30 душно 1012.3 999.5 +33.5
21 14.08 ЮВ 1 10 км ясно +22.6 +16.4 68 +27 +27 душно 1012.2 999.3
00 15.08 штиль 0 10 км ясно +17.6 +14.9 84 +18 +18 1012.7 999.5
03 15.08 штиль 0 20 км ясно +15.2 +13.9 92 +15 +15 1013.0 999.7 +15.2
06 15.08 ЮВ 1 20 км ясно +24.8 +14.6 53 +27 +36 жарко 1012.8 1000.0 +15.2
09 15.08 ЮВ 3 20 км 3/0
[Ci fib]
+30.6 +10.3 28 +30 +41 жарко 1011.7 999.1
12 15.08 ЮВ 4 20 км 4/0
[Ci fib]
+32.4 +10.2 26 +32 +38 жарко 1010.1 997.5
15 15.08 ЮВ 2 20 км 8/0
[Ac trans]
+30.4 +13.6 36 +32 +33 жарко 1009.8 997.2
18 15.08 В 1 10 км 8/0
[Ac trans]
+27.1 +16.1 51 +30 +30 душно 1008.5 995.8 +33.0
21 15.08 В 2 10 км 8/0
[Ac trans Ci fib]
+25.7 +15.5 53 +29 +29 душно 1008.0 995.2
00 16.08 В 1 10 км 10/0
[Ac As]
+25.1 +13.5 49 +27 +27 жарко 1007.4 994.6
03 16.08 В 1 10 км 9/0
[Ac trans Ci fib]
+22.3 +11.9 52 +25 +25 комфорт 1007.1 994.2 +22.0
06 16.08 ЮВ 1 20 км 8/0
[Ac trans Ci fib]
+24.0 +12.7 49 +26 +31 жарко 1006.7 993.8 +22.0
09 16.08 ЮВ 2 20 км 4/0
[Ci fib]
+27.0 +13.2 43 +29 +42 жарко 1006.0 993.3
12 16.08 ЮВ 3 20 км 6/0
[Ci fib]
+28.8 +14.4 41 +31 +38 жарко 1005.5 992.9
15 16.08 ЮВ 3 20 км 8/0
[Ci fib]
+25.9 +15.1 51 +29 +30 душно 1005.4 992.6
18 16.08 ЮВ 1 10 км 8/3 600 м
[Cb cap Ac trans]
+23.3 +14.5 58 +27 +27 душно 1006.9 994.0 +28.8
21 16.08 штиль 0 10 км 10/0
[Ac As]
+22.0 +16.0 69 +26 +26 душно 1006.9 994.0
00 17.08 штиль 0 10 км 10/0
[Ac As]
+21.1 +15.8 72 +24 +24 комфорт 1007.4 994.5
03 17.08 штиль 0 10 км слаб. ливневой дождь 10/4 600 м
[Cb cap Ac As]
+19.5 +17.9 90 +22 +22 комфорт 1007.5 994.5 +19.3 2
06 17.08 Ю 1 10 км {ливн. осадки} 10/3 600 м
[Cb cap Ac As]
+20.1 +19.2 95 +25 +26 комфорт 1007.0 994.1 +19.3 3
09 17.08 Ю 1 20 км {ливн. осадки} 10/3 600 м
[Cb cap Ac As]
+21.5 +19.5 88 +26 +30 душно 1007.7 994.8
12 17.08 Ю 1 20 км {ливн. осадки} 9/3 600 м
[Cb cap Ac trans Ci fib]
+22.0 +19.2 84 +27 +32 душно 1007.4 994.5
15 17.08 Ю 2 20 км 8/0
[Ac trans Ci fib]
+23.5 +18.6 74 +28 +29 душно 1007.0 994.1 2
18 17.08 СЗ 2 10 км 8/3 600 м
[Cb cap Ac trans]
+21.2 +17.7 80 +25 +25 комфорт 1007.9 995.0 +24.0 1
21 17.08 С 1 10 км 3/0
[Ci fib]
+18.0 +17.4 96 +19 +19 1008.4 995.4
00 18.08 СЗ 1 10 км 6/0
[Ci fib]
+16.7 +16.0 96 +18 +18 1009.3 996.1
03 18.08 С 1 10 км 8/0
[Ac trans Ci fib]
+15.8 +15.1 96 +16 +17 1009.4 996.1 +15.4
06 18.08 ЮЗ 1 4000 м дымка 10/0
[Ac As]
+18.3 +17.4 94 +20 +22 1010.0 996.9 +15.4
09 18.08 Ю 2 20 км 3/3 1000 м
[Cu hum]
+23.1 +15.7 63 +27 +37 душно 1010.3 997.4
12 18.08 ЮЗ 1 20 км 4/3 1000 м
[Cu hum Ci fib]
+25.2 +12.8 46 +27 +35 жарко 1010.7 997.9
15 18.08 З 1 20 км 6/0
[Ac trans Ci fib]
+24.5 +14.2 53 +27 +28 жарко 1011.2 998.4
18 18.08 СЗ 2 10 км 6/0
[Ac trans Ci fib]
+20.0 +15.4 75 +23 +23 комфорт 1013.2 1000.2 +26.5
21 18.08 СЗ 2 10 км 4/0
[Ci fib]
+16.2 +14.8 91 +16 +16 1014.9 1001.6
00 19.08 СЗ 1 10 км 4/0
[Ci fib]
+14.8 +13.5 92 +15 +15 1014.9 1001.6
03 19.08 З 2 10 км 3/0
[Ci fib]
+13.2 +12.3 94 +12 +12 1016.5 1003.1 +13.2
06 19.08 С 2 20 км 3/0
[Ci fib]
+19.1 +14.1 73 +21 +27 комфорт 1018.5 1005.3 +13.2
09 19.08 СЗ 1 20 км 4/0
[Ac trans Ci fib]
+23.5 +14.8 58 +26 +39 жарко 1018.4 1005.4

 

Местоположение метеостанции Валуйки (Белгородская область, Россия): широта 50.22 долгота 38.10 высота над уровнем моря 112 м.

В архиве по умолчанию представлена погода в Валуйках за последнюю неделю. Архивные данные за месяц целиком и за предыдущие месяцы, начиная с января 2011 года, Вы можете получить, выбрав интересующий диапазон дат из раскрывающегося списка и нажав кнопку "Ввод!".


*Определитесь, кто Вы:
робот инопланетянин человек

Внимание! Время в таблицах - всемирное. Для получения местного времени необходимо прибавить поправку, которая равна 3 ч.

Смотрите также архив погоды в соседних городах и на ближайших метеорологических станциях:

Погода в Новопскове (Луганская область, Украина) (25 км)
Погода в Троицком (Луганская область, Украина) (35 км)
Погода в Великом Бурлуке (Харьковская область, Украина) (54 км)
Погода в Новом Осколе (Белгородская область, Россия) (61 км)
Погода в Купянске (Харьковская область, Украина) (72 км)
Погода в Сватово (Луганская область, Украина) (89 км)
Погода в Белгороде (Белгородская область, Россия) (117 км)
Погода в Богородицком (Белгородская область, Россия) (118 км)
Погода в Старом Осколе (Белгородская область, Россия) (121 км)
Погода в Изюме (Харьковская область, Украина) (129 км)

Пояснения к столбцам:

Ветер - указаны скорость ветра в м/с - средняя за 10 мин, порывы в срок и между сроками (в фигурных скобках) и направление, откуда дует ветер: С - северный, СВ - северо-восточный, В - восточный, ЮВ - юго-восточный, Ю - южный, ЮЗ - юго-западный, З - западный, СЗ - северо-западный.
Видимость - горизонтальная дальность видимости в метрах или километрах. При видимости от 1 до 10 км при отсутствии осадков обычно наблюдается дымка, при ухудшении видимости до 1 км и менее - туман. В сухую погоду видимость может ухудшаться дымом, пылью или мглою.
Явления - указаны атмосферные явления, наблюдавшиеся в срок или в последний час перед сроком; фигурными скобками обозначены явления, наблюдавшиеся между сроками (за 1-3 часа до срока); квадратными скобками обозначены град или гололедные отложения с указанием их диаметра в мм.
Облачность - указаны через наклонную черту общая и нижняя облачность в баллах и высота нижней границы облаков в метрах; квадратными скобками обозначены формы облаков: Ci - перистые, Cs - перисто-слоистые, Cc - перисто-кучевые, Ac - высококучевые, As - высокослоистые, Sc - слоисто-кучевые, Ns - слоисто-дождевые, Cu - кучевые, Cb - кучево-дождевые. Подробнее классификацию облаков см. в Атласе облаков (PDF).
T - Температура воздуха - температура, измеренная на высоте 2 м над землей.
Td - Температура точки росы - температура, при понижении до которой содержащийся в воздухе водяной пар достигнет насыщения.
f - Относительная влажность воздуха - влажноcть воздуха, измеренная на высоте 2 м над землей.
Te - Эффективная температура - температура, которую ощущает одетый по сезону человек в тени. Характеристика душности погоды. При расчете учитывается влияние влажности воздуха и скорости ветра на теплоощущения человека.
Tes - Эффективная температура на солнце - температура, которую ощущает человек, с поправкой на солнечный нагрев. Характеристика знойности погоды. Зависит от высоты солнца над горизонтом, облачности и скорости ветра. Ночью, в пасмурную погоду, а также при ветре 12 м/с и более поправка равна нулю.
P - Атмосферное давление - приведенное к уровню моря атмосферное давление.
Po - Атмосферное давление - измеренное на уровне метеостанции атмосферное давление.
Tmin - Минимальная температура - минимум температуры воздуха на высоте 2 м над землей.
Tmax - Максимальная температура - максимум температуры воздуха на высоте 2 м над землей.
R - Количество осадков - Количество выпавших осадков за период времени, мм. При наведении курсора мыши на число - период времени, за который выпало указанное количество осадков.
R24 - Количество осадков - Количество выпавших осадков за 24 часа, мм.
S - Снежный покров - Высота снежного покрова, см. При наведении курсора мыши на число - состояние снежного покрова и степень покрытия местности в баллах.